sat.trackr.live / text

‹ back to catalog

CSTP 1.2 (STC 1.2)

NORAD 57186 · 2023-091W

PAYLOAD ACTIVE UNKNOWN

§ Identity

Operator
Country
CIS
Launch date
2023-06-27
Launch site
VOSTO
Launch vehicle
Mass (kg)
RCS (m²)

External: N2YO · Heavens-Above · Gunter

§ Orbital elements

Epoch: 2026-09-21T22:18:19.278720Z

Period
94.10 min
Inclination
97.5058°
Eccentricity
0.0019081
Mean motion
15.30245074 rev/d
Perigee alt
462.0 km
Apogee alt
488.2 km
Semi-major
6,853.2 km
B*
2.0511e-4
RAAN
332.1853°
Arg perigee
109.9886°
Mean anomaly
250.3412°
Rev number
17,924

§ Raw data

CSTP 1.2 (STC 1.2)1 57186U 23091W   26264.92938980  .00005954  00000+0  20511-3 0  99942 57186  97.5058 332.1853 0019081 109.9886 250.3412 15.30245074179249

JSON: /api/v1/satellites/57186 · /tle

For live sub-satellite position, see the globe view (requires WebGL).

§ Visibility from observer

Set your observer location to see the next 7 days of passes ≥ 10°. The values pass through the URL so the page stays shareable.

No JS? Fill the form by hand. The geolocation button needs JavaScript.

§ Radio — SatNOGS DB

ModeDescriptionDownlinkUplink
LoRa Mode U - LoRa 436.270 MHz

1 transmitter · refreshed weekly from db.satnogs.org